Miscellaneous Local Product
Issued by NWS Hastings, NE

Home | Current Version | Previous Version | Graphics & Text | Print | Product List | Glossary On
Versions: 1 2 3 4 5 6 7 8 9 10 11 12 13 14 15 16 17 18 19 20 21 22 23 24 25 26 27 28 29 30 31 32 33 34 35 36 37 38 39 40 41 42 43 44 45 46 47 48 49 50
773
AXUS43 KGID 231902
MISGRI

GID CWA HOURLY WEATHER ROUNDUP
NATIONAL WEATHER SERVICE HASTINGS NE
100 PM CST THU NOV 23 2017

NOTE: "FAIR" INDICATES FEW OR NO CLOUDS BELOW 12,000 FEET WITH NO
SIGNIFICANT WEATHER AND/OR OBSTRUCTIONS TO VISIBILITY.

...SOUTH CENTRAL NEBRASKA...

CITY           SKY/WX    TMP DP  RH WIND       PRES   REMARKS
GRAND ISLAND   SUNNY     68  43  40 SW12      29.96F
KEARNEY        SUNNY     68  41  37 SW10      29.97
HASTINGS       SUNNY     68  40  35 SW8G17    29.97F
ORD            SUNNY     71  41  33 SW14      29.91F
YORK           SUNNY     68  41  37 SW10      29.95F
AURORA         SUNNY     69  40  35 SW12      29.96F
LEXINGTON      SUNNY     72  40  31 W9        29.97F
HOLDREGE       SUNNY     70  42  36 W10       29.98F
HEBRON         SUNNY     71  39  31 SW5       29.97F

...NEBRASKA PANHANDLE...

CITY           SKY/WX    TMP DP  RH WIND       PRES   REMARKS
CHADRON        SUNNY     69  38  32 W13       29.91F
ALLIANCE       CLOUDY    69  40  34 W18G26    29.96F
SCOTTSBLUFF    SUNNY     69  38  32 W18       29.98F
SIDNEY         SUNNY     69  37  30 W15       30.03F

...WESTERN AND NORTH CENTRAL NEBRASKA...

CITY           SKY/WX    TMP DP  RH WIND       PRES   REMARKS
VALENTINE      CLOUDY    73  40  30 SW21      29.86F
AINSWORTH      SUNNY     71  41  34 SW16G22   29.88F
ONEILL         SUNNY     68  43  40 SW9       29.88F
BROKEN BOW     SUNNY     70  42  36 W9        29.94F
IMPERIAL       CLOUDY    69  40  34 W10       30.00F
NORTH PLATTE   SUNNY     68  43  40 W9        29.96F
MCCOOK         CLOUDY    66  44  45 W9        30.00F

...EASTERN NEBRASKA...

CITY           SKY/WX    TMP DP  RH WIND       PRES   REMARKS
NORFOLK        SUNNY     67  42  40 SW13      29.89F
SO SIOUX CITY  CLOUDY    54  35  48 S7        29.92F
TEKAMAH        SUNNY     57  35  43 CALM      29.94F
COLUMBUS       SUNNY     64  42  44 SW10      29.94F
ALBION         SUNNY     71  43  36 SW12      29.92F
OMAHA EPPLEY   MOSUNNY   56  35  45 E3        29.97F
OFFUTT AFB     SUNNY     58  36  43 W3        29.97F
MILLARD        SUNNY     60  39  46 CALM      29.97F
LINCOLN        SUNNY     63  39  41 SW3       29.97F
NEBRASKA CITY  SUNNY     61  38  43 W3        29.98F
BEATRICE       SUNNY     65  41  40 SW3       29.97F
FALLS CITY     SUNNY     61  37  41 NW3       29.98F

...NORTHERN KANSAS...

CITY           SKY/WX    TMP DP  RH WIND       PRES   REMARKS
GOODLAND       CLOUDY    69  39  33 W3        30.05F
HILL CITY      SUNNY     71  42  35 SW6       30.01F
NORTON         CLEAR     70  36  28 W6        29.99F
PHILLIPSBURG   SUNNY     70  37  30 S5        30.00F
SMITH CENTER   MOSUNNY   66  37  34 SW5       30.00F
HAYS           SUNNY     69  43  38 CALM      30.01F
RUSSELL        SUNNY     69  42  37 SW8       30.00F
CONCORDIA      SUNNY     70  40  33 SW6       29.99F
SALINA         SUNNY     66  39  37 S5        30.01F
TOPEKA         SUNNY     61  34  36 CALM      30.00F



USA.gov is the U.S. government's official web portal to all federal, state and local government web resources and services.